Location: Newark
(40.2401°N, 1.4098°W)
Time: 11:42:28
(UTC+00:00)

N. Korean satellite - Visible Passes

Search period start: 21 March 2019 00:00
Search period end: 31 March 2019 00:00
Orbit: 456 x 510 km, 97.2° (Epoch: 20 March)

Date Brightness Start Highest point End Pass type
(mag) Time Alt. Az. Time Alt. Az. Time Alt. Az.
21 Mar 10.5 05:09:37 10° E 05:10:10 10° E 05:10:44 10° E visible
24 Mar 9.8 05:26:44 10° NE 05:29:17 18° E 05:31:50 10° SE visible
28 Mar 9.9 05:21:05 10° NE 05:23:21 16° E 05:25:38 10° SE visible
